Weather History for Erie, CO

Change the Weather History Date:

Thursday, May 16, 2013

  Actual Average (KBJC) Record (KBJC)
Temperature  
Mean Temperature 64 °F -  
Max Temperature 79 °F 68 °F 88 °F (1988)
Min Temperature 49 °F 44 °F 37 °F (1986)
Degree Days  
Heating Degree Days 1    
Growing Degree Days 14 (Base 50)    
Moisture  
Dew Point 45 °F    
Average Humidity 57    
Maximum Humidity 96    
Minimum Humidity 21    
Precipitation  
Precipitation 0.00 in - - ()
Sea Level Pressure  
Sea Level Pressure 29.89 in    
Wind  
Wind Speed 3 mph (ESE)    
Max Wind Speed 14 mph    
Max Gust Speed 31 mph    
Visibility 10 miles    
Events Rain    
Averages and records for this station are not official NWS values.
T = Trace of Precipitation, MM = Missing Value Source: NWS Daily Summary

Daily Weather History Graph

Daily Weather History Graph

Search for Another Location

Airport:

Trip Planner

Search our weather history database for the weather conditions in past years. The results will help you decide how hot, cold, wet, or windy it might be!

Date:

Astronomy

May. 16, 2013 Rise Set
Actual Time 5:43 AM MDT 8:09 PM MDT
Civil Twilight 5:12 AM MDT 8:40 PM MDT
Nautical Twilight 4:34 AM MDT 9:19 PM MDT
Astronomical Twilight 3:52 AM MDT 10:01 PM MDT
Moon 11:19 AM MDT (5/16) 12:32 AM MDT (5/16)
Length of Visible Light 15h 27m
Length of Day
14h 26m
Waxing Crescent, 36% of the Moon is Illuminated
May 16
Waxing Crescent
May 17
First Quarter
May 24
Full
May 31
Last Quarter
Jun 8
New

Hourly Weather History & Observations

Time (MDT) Temp. Dew Point Humidity Pressure Visibility Wind Dir Wind Speed Gust Speed Precip Events Conditions
12:15 AM 55.2 °F 52.0 °F 89% 29.98 in 10.0 mi Calm Calm - N/A   Clear
12:35 AM 54.5 °F 51.4 °F 89% 29.97 in 10.0 mi Calm Calm - N/A   Clear
12:55 AM 54.0 °F 51.8 °F 92% 29.94 in 10.0 mi East 3.5 mph - N/A   Clear
1:15 AM 54.1 °F 51.8 °F 92% 29.95 in 10.0 mi WSW 4.6 mph - N/A   Clear
1:35 AM 54.3 °F 52.2 °F 92% 29.94 in 10.0 mi WSW 5.8 mph - N/A   Scattered Clouds
1:55 AM 55.0 °F 52.5 °F 91% 29.94 in 10.0 mi Calm Calm - N/A   Clear
2:15 AM 54.7 °F 52.0 °F 91% 29.94 in 10.0 mi SW 3.5 mph - N/A   Clear
2:35 AM 53.8 °F 51.3 °F 91% 29.93 in 10.0 mi Calm Calm - N/A   Clear
2:55 AM 52.3 °F 50.5 °F 94% 29.93 in 10.0 mi Calm Calm - N/A   Clear
3:15 AM 52.0 °F 50.2 °F 94% 29.93 in 10.0 mi Calm Calm - N/A   Clear
3:35 AM 50.4 °F 48.9 °F 95% 29.93 in 10.0 mi Calm Calm - N/A   Clear
3:55 AM 49.1 °F 47.8 °F 95% 29.91 in 10.0 mi Calm Calm - N/A   Clear
4:15 AM 50.7 °F 49.6 °F 96% 29.92 in 10.0 mi Calm Calm - N/A   Clear
4:35 AM 50.9 °F 49.1 °F 94% 29.90 in 10.0 mi Calm Calm - N/A   Clear
4:55 AM 50.4 °F 48.7 °F 94% 29.90 in 10.0 mi Calm Calm - N/A   Clear
5:15 AM 49.1 °F 47.8 °F 95% 29.90 in 10.0 mi Calm Calm - N/A   Clear
5:35 AM 49.5 °F 48.0 °F 95% 29.92 in 10.0 mi NW 4.6 mph - N/A   Clear
5:55 AM 49.8 °F 48.4 °F 95% 29.90 in 10.0 mi SSE 4.6 mph - N/A   Scattered Clouds
6:15 AM 51.3 °F 49.5 °F 94% 29.91 in 10.0 mi NW 3.5 mph - N/A   Scattered Clouds
6:35 AM 52.5 °F 50.7 °F 94% 29.93 in 10.0 mi NNW 6.9 mph - N/A   Clear
6:55 AM 53.4 °F 50.4 °F 89% 29.92 in 10.0 mi NE 3.5 mph - N/A   Scattered Clouds
7:15 AM 54.0 °F 51.3 °F 91% 29.93 in 10.0 mi WSW 3.5 mph - N/A   Mostly Cloudy
7:35 AM 54.3 °F 51.4 °F 90% 29.93 in 10.0 mi Calm Calm - N/A   Scattered Clouds
7:55 AM 57.2 °F 51.6 °F 82% 29.93 in 10.0 mi Calm Calm - N/A   Clear
8:15 AM 58.3 °F 51.8 °F 79% 29.94 in 10.0 mi West 4.6 mph - N/A   Clear
8:35 AM 59.7 °F 51.6 °F 75% 29.93 in 10.0 mi Calm Calm - N/A   Clear
8:55 AM 61.7 °F 51.3 °F 69% 29.93 in 10.0 mi Calm Calm - N/A   Clear
9:15 AM 63.3 °F 52.0 °F 66% 29.92 in 10.0 mi Calm Calm - N/A   Clear
9:35 AM 64.4 °F 51.8 °F 64% 29.92 in 10.0 mi Calm Calm - N/A   Clear
9:55 AM 66.0 °F 52.0 °F 60% 29.92 in 10.0 mi Calm Calm - N/A   Clear
10:15 AM 67.8 °F 48.6 °F 50% 29.91 in 10.0 mi South 3.5 mph - N/A   Clear
10:35 AM 69.6 °F 47.1 °F 45% 29.91 in 10.0 mi SSE 4.6 mph - N/A   Clear
10:55 AM 70.9 °F 44.8 °F 39% 29.90 in 10.0 mi South 3.5 mph - N/A   Clear
11:15 AM 72.1 °F 46.2 °F 40% 29.90 in 10.0 mi ESE 5.8 mph - N/A   Clear
11:35 AM 73.8 °F 45.5 °F 36% 29.90 in 10.0 mi East 4.6 mph - N/A   Clear
11:55 AM 74.1 °F 44.4 °F 35% 29.89 in 10.0 mi ESE 9.2 mph - N/A   Clear
12:15 PM 75.2 °F 41.4 °F 30% 29.89 in 10.0 mi ESE 6.9 mph - N/A   Clear
12:35 PM 75.9 °F 42.1 °F 30% 29.88 in 10.0 mi SE 9.2 mph - N/A   Clear
1:15 PM 77.7 °F 41.5 °F 27% 29.87 in 10.0 mi SE 9.2 mph - N/A   Clear
1:35 PM 78.4 °F 41.5 °F 27% 29.85 in 10.0 mi SE 5.8 mph - N/A   Clear
1:55 PM 77.0 °F 39.4 °F 26% 29.85 in 10.0 mi SE 5.8 mph - N/A   Clear
2:15 PM 77.7 °F 38.8 °F 25% 29.85 in 10.0 mi East 5.8 mph - N/A   Clear
2:35 PM 79.7 °F 37.6 °F 22% 29.84 in 10.0 mi SSE 5.8 mph - N/A   Clear
2:55 PM 79.5 °F 39.2 °F 24% 29.83 in 10.0 mi ESE 6.9 mph - N/A   Scattered Clouds
3:15 PM 78.8 °F 35.2 °F 21% 29.82 in 10.0 mi Calm Calm - N/A   Clear
3:35 PM 74.1 °F 33.8 °F 23% 29.84 in 10.0 mi WNW 13.8 mph 24.2 mph N/A   Mostly Cloudy
4:15 PM 76.3 °F 37.9 °F 25% 29.82 in 10.0 mi NNE 4.6 mph - N/A   Clear
4:35 PM 78.3 °F 36.3 °F 22% 29.82 in 10.0 mi ESE 3.5 mph - N/A   Clear
4:55 PM 77.9 °F 37.2 °F 23% 29.81 in 10.0 mi East 8.1 mph - N/A   Clear
5:15 PM 78.1 °F 37.8 °F 23% 29.81 in 10.0 mi East 8.1 mph - N/A   Clear
5:35 PM 78.8 °F 37.2 °F 22% 29.81 in 10.0 mi ESE 5.8 mph - N/A   Clear
5:55 PM 75.4 °F 34.3 °F 22% 29.81 in 10.0 mi East 4.6 mph - N/A   Clear
6:15 PM 76.1 °F 34.5 °F 22% 29.82 in 10.0 mi ENE 3.5 mph - N/A   Scattered Clouds
6:35 PM 74.3 °F 40.5 °F 30% 29.83 in 10.0 mi Calm Calm - N/A Rain Light Rain
6:55 PM 74.8 °F 32.9 °F 22% 29.84 in 10.0 mi NE 3.5 mph 31.1 mph N/A   Overcast
7:15 PM 75.2 °F 34.3 °F 23% 29.84 in 10.0 mi NNW 4.6 mph - N/A   Mostly Cloudy
7:35 PM 70.3 °F 40.8 °F 34% 29.85 in 10.0 mi NW 3.5 mph - N/A   Scattered Clouds
7:55 PM 68.9 °F 39.2 °F 34% 29.85 in 10.0 mi NW 4.6 mph - N/A   Clear
8:15 PM 66.2 °F 40.6 °F 39% 29.86 in 10.0 mi NNW 3.5 mph - N/A   Clear
8:35 PM 66.7 °F 38.8 °F 36% 29.86 in 10.0 mi Calm Calm - N/A   Clear
8:55 PM 64.8 °F 40.5 °F 41% 29.87 in 10.0 mi Calm Calm - N/A   Clear
9:15 PM 61.2 °F 44.1 °F 53% 29.88 in 10.0 mi Calm Calm - N/A   Clear
9:35 PM 62.6 °F 45.9 °F 54% 29.88 in 10.0 mi SSW 3.5 mph - N/A   Clear
9:55 PM 62.1 °F 46.4 °F 56% 29.89 in 10.0 mi Calm Calm - N/A   Clear
10:15 PM 63.1 °F 45.0 °F 51% 29.90 in 10.0 mi SE 8.1 mph - N/A   Clear
10:35 PM 65.8 °F 45.0 °F 47% 29.90 in 10.0 mi SE 6.9 mph - N/A   Mostly Cloudy
10:55 PM 65.3 °F 45.5 °F 49% 29.89 in 10.0 mi Calm Calm - N/A   Overcast
11:15 PM 64.0 °F 46.4 °F 53% 29.89 in 10.0 mi Calm Calm - N/A   Scattered Clouds
11:35 PM 62.1 °F 47.7 °F 59% 29.92 in 10.0 mi North 4.6 mph - N/A   Scattered Clouds
11:55 PM 63.1 °F 47.1 °F 56% 29.90 in 10.0 mi ENE 3.5 mph - N/A   Scattered Clouds